Location: Guilderland
(42.7045°N, 73.9115°W)
Time: 14:01:38
(UTC+00:00)

Cosmos 2333 Rocket - Pass Details

Date: 24 January 2020
Orbit: 838 x 863 km, 70.8° (Epoch: 22 February)

Event Time Altitude Azimuth Distance (km) Brightness Sun altitude
Rises 22:14:41 0° 330° (NNW) 3,435 5.5 -3.6°
Reaches altitude 10° 22:17:14 10° 324° (NW) 2,491 4.8 -4.1°
Maximum altitude 22:22:41 47° 252° (WSW) 1,113 3.5 -5.0°
Drops below altitude 10° 22:28:03 10° 180° (S) 2,458 4.9 -5.9°
Sets 22:30:33 0° 175° (S) 3,386 5.5 -6.3°
